Location: Gleizolles
(44.4833°N, 6.7667°E)
Time: 16:10:29
(UTC+00:00)

Tiros 1 - Pass Details

Date: 25 June 2024
Orbit: 624 x 656 km, 48.4° (Epoch: 13 July)

Event Time Altitude Azimuth Distance (km) Brightness Sun altitude
Rises 22:34:00 0° 238° (WSW) 2,893 - -20.7°
Reaches altitude 10° 22:36:18 10° 236° (SW) 1,989 - -20.8°
Exits shadow 22:38:55 34° 228° (SW) 1,035 7.9 -20.9°
Maximum altitude 22:40:51 71° 153° (SSE) 662 6.9 -21.0°
Drops below altitude 10° 22:45:26 10° 70° (ENE) 2,003 9.8 -21.2°
Sets 22:47:46 0° 68° (ENE) 2,916 10.6 -21.3°
